User: anonymous   Login
Location: Hancock Field Station
(44.9202°N, 120.4259°W)
Time: 23:08:34
(UTC-07:00)
Language:

Nadezhda 4 Rocket - Orbit

View from above orbital plane
View from above orbital plane
View from above satellite
View from above satellite

Ground track
Ground track

The orbit data is extracted from the following two-line orbital elements,

1 23180U 94041B   17081.90862316 +.00000031 +00000-0 +14828-4 0  9995
2 23180 082.9498 355.2339 0030214 105.5712 307.9854 13.77936073140767
Epoch (UTC): 22 March 2017 21:48:25
Eccentricity: 0.0030214
inclination: 82.9498°
perigee height: 949 km
apogee height: 993 km
right ascension of ascending node: 355.2339°
argument of perigee: 105.5712°
revolutions per day: 13.77936073
mean anomaly at epoch: 307.9854°
orbit number at epoch: 14076

The dashed part of the orbit path shows where the satellite is in the earth's shadow,  

DLR